| time (UTC) | temp F | wind direction | speed MPH | gust MPH | rain 1hr in | rain 24hr in | rain mn in | humidity % | barometer mb |
| 20260508175552 | 63 | 156 | 0.0 | 9.0 | 0.00 | 0.00 | 0.00 | 43 | 1009.5 |
| 20260508175052 | 64 | 163 | 0.0 | 7.0 | 0.00 | 0.00 | 0.00 | 42 | 1009.6 |
| 20260508174605 | 64 | 162 | 0.0 | 7.0 | 0.00 | 0.00 | 0.00 | 43 | 1009.7 |
| 20260508174050 | 64 | 169 | 0.0 | 7.0 | 0.00 | 0.00 | 0.00 | 41 | 1009.7 |
| 20260508173549 | 64 | 257 | 1.0 | 7.0 | 0.00 | 0.00 | 0.00 | 41 | 1009.7 |
| 20260508173049 | 64 | 241 | 0.0 | 6.0 | 0.00 | 0.00 | 0.00 | 43 | 1009.7 |
| 20260508172547 | 64 | 247 | 0.0 | 4.0 | 0.00 | 0.00 | 0.00 | 42 | 1009.7 |
| 20260508172051 | 64 | 246 | 0.0 | 3.0 | 0.00 | 0.00 | 0.00 | 43 | 1009.7 |
| 20260508171546 | 63 | 250 | 0.0 | 6.0 | 0.00 | 0.00 | 0.00 | 44 | 1009.7 |
| 20260508171046 | 63 | 245 | 0.0 | 8.0 | 0.00 | 0.00 | 0.00 | 42 | 1009.8 |
| 20260508170544 | 63 | 245 | 1.0 | 8.0 | 0.00 | 0.00 | 0.00 | 43 | 1009.9 |
| 20260508170045 | 62 | 243 | 1.0 | 8.0 | 0.00 | 0.00 | 0.00 | 45 | 1010.1 |
| 20260508165541 | 62 | 233 | 0.0 | 4.0 | 0.00 | 0.00 | 0.00 | 44 | 1010.1 |
| 20260508165038 | 61 | 233 | 0.0 | 8.0 | 0.00 | 0.00 | 0.00 | 45 | 1010.1 |
| 20260508164545 | 61 | 232 | 0.0 | 3.0 | 0.00 | 0.00 | 0.00 | 46 | 1010.2 |
| 20260508164037 | 61 | 232 | 0.0 | 4.0 | 0.00 | 0.00 | 0.00 | 44 | 1010.3 |
| 20260508163539 | 60 | 232 | 0.0 | 4.0 | 0.00 | 0.00 | 0.00 | 44 | 1010.3 |
| 20260508163036 | 60 | 230 | 0.0 | 0.0 | 0.00 | 0.00 | 0.00 | 48 | 1010.3 |
| 20260508162533 | 59 | 230 | 0.0 | 0.0 | 0.00 | 0.00 | 0.00 | 46 | 1010.4 |
| 20260508162033 | 59 | 230 | 0.0 | 1.0 | 0.00 | 0.00 | 0.00 | 47 | 1010.4 |
| 20260508161531 | 59 | 230 | 0.0 | 4.0 | 0.00 | 0.00 | 0.00 | 50 | 1010.5 |
| 20260508161029 | 58 | 230 | 1.0 | 7.0 | 0.00 | 0.00 | 0.00 | 51 | 1010.5 |
| 20260508160528 | 59 | 233 | 1.0 | 7.0 | 0.00 | 0.00 | 0.00 | 51 | 1010.5 |
| 20260508160031 | 58 | 239 | 0.0 | 0.0 | 0.00 | 0.00 | 0.00 | 51 | 1010.6 |
| 20260508155527 | 58 | 239 | 0.0 | 0.0 | 0.00 | 0.00 | 0.00 | 54 | 1010.5 |
| 20260508155027 | 58 | 239 | 0.0 | 0.0 | 0.00 | 0.00 | 0.00 | 56 | 1010.6 |
| 20260508154525 | 57 | 239 | 0.0 | 4.0 | 0.00 | 0.00 | 0.00 | 56 | 1010.6 |
| 20260508154023 | 57 | 239 | 0.0 | 4.0 | 0.00 | 0.00 | 0.00 | 59 | 1010.6 |
| 20260508153522 | 56 | 239 | 0.0 | 4.0 | 0.00 | 0.00 | 0.00 | 58 | 1010.7 |
| 20260508153030 | 55 | 239 | 0.0 | 0.0 | 0.00 | 0.00 | 0.00 | 64 | 1010.7 |
| 20260508152522 | 55 | 239 | 0.0 | 8.0 | 0.00 | 0.00 | 0.00 | 63 | 1010.8 |
| 20260508152018 | 54 | 239 | 1.0 | 8.0 | 0.00 | 0.00 | 0.00 | 64 | 1010.8 |
| 20260508151518 | 54 | 239 | 0.0 | 0.0 | 0.00 | 0.00 | 0.00 | 65 | 1010.9 |
| 20260508151015 | 53 | 239 | 0.0 | 0.0 | 0.00 | 0.00 | 0.00 | 64 | 1010.9 |
| 20260508150514 | 53 | 239 | 0.0 | 0.0 | 0.00 | 0.00 | 0.00 | 67 | 1011.0 |
| 20260508150014 | 53 | 239 | 0.0 | 0.0 | 0.00 | 0.00 | 0.00 | 67 | 1011.1 |
| 20260508145512 | 52 | 239 | 0.0 | 3.0 | 0.00 | 0.01 | 0.00 | 69 | 1011.1 |
| 20260508145009 | 52 | 239 | 0.0 | 3.0 | 0.00 | 0.01 | 0.00 | 70 | 1011.1 |
| 20260508144509 | 52 | 239 | 0.0 | 0.0 | 0.00 | 0.01 | 0.00 | 70 | 1011.2 |
| 20260508144109 | 51 | 239 | 0.0 | 0.0 | 0.00 | 0.01 | 0.00 | 71 | 1011.2 |
| 20260508143506 | 51 | 239 | 0.0 | 0.0 | 0.00 | 0.01 | 0.00 | 72 | 1011.4 |
| 20260508143006 | 50 | 239 | 0.0 | 2.0 | 0.00 | 0.01 | 0.00 | 72 | 1011.4 |
| 20260508142503 | 50 | 239 | 0.0 | 4.0 | 0.00 | 0.01 | 0.00 | 74 | 1011.3 |
| 20260508142001 | 49 | 277 | 0.0 | 6.0 | 0.00 | 0.01 | 0.00 | 76 | 1011.4 |
| 20260508141608 | 49 | 277 | 0.0 | 6.0 | 0.00 | 0.01 | 0.00 | 75 | 1011.5 |
| 20260508141058 | 49 | 277 | 0.0 | 0.0 | 0.00 | 0.01 | 0.00 | 76 | 1011.4 |
| 20260508140557 | 48 | 277 | 0.0 | 0.0 | 0.00 | 0.01 | 0.00 | 78 | 1011.5 |
| 20260508140056 | 48 | 277 | 0.0 | 0.0 | 0.00 | 0.01 | 0.00 | 79 | 1011.6 |
| 20260508135554 | 47 | 277 | 0.0 | 5.0 | 0.00 | 0.02 | 0.00 | 83 | 1011.7 |
| 20260508135053 | 46 | 277 | 0.0 | 5.0 | 0.00 | 0.02 | 0.00 | 86 | 1011.8 |
| 20260508134553 | 46 | 277 | 0.0 | 3.0 | 0.00 | 0.02 | 0.00 | 89 | 1011.9 |
| 20260508134051 | 45 | 277 | 0.0 | 5.0 | 0.00 | 0.02 | 0.00 | 90 | 1011.9 |
| 20260508133550 | 44 | 277 | 0.0 | 9.0 | 0.00 | 0.02 | 0.00 | 91 | 1012.0 |
| 20260508133052 | 43 | 277 | 2.0 | 9.0 | 0.00 | 0.02 | 0.00 | 92 | 1012.0 |
| 20260508132548 | 42 | 293 | 1.0 | 5.0 | 0.00 | 0.02 | 0.00 | 92 | 1012.0 |
| 20260508132048 | 41 | 296 | 0.0 | 0.0 | 0.00 | 0.02 | 0.00 | 91 | 1012.0 |
| 20260508131558 | 41 | 296 | 0.0 | 0.0 | 0.00 | 0.02 | 0.00 | 92 | 1011.9 |
| 20260508131047 | 39 | 296 | 0.0 | 0.0 | 0.00 | 0.02 | 0.00 | 91 | 1011.7 |
| 20260508130549 | 38 | 297 | 0.0 | 0.0 | 0.00 | 0.02 | 0.00 | 91 | 1011.8 |
| 20260508130045 | 38 | 296 | 0.0 | 0.0 | 0.00 | 0.02 | 0.00 | 90 | 1011.9 |
| 20260508125543 | 37 | 297 | 0.0 | 0.0 | 0.00 | 0.02 | 0.00 | 90 | 1011.8 |
| 20260508125043 | 37 | 297 | 0.0 | 0.0 | 0.00 | 0.02 | 0.00 | 89 | 1011.6 |
| 20260508124544 | 37 | 297 | 0.0 | 0.0 | 0.00 | 0.02 | 0.00 | 89 | 1011.6 |
| 20260508124042 | 36 | 297 | 0.0 | 0.0 | 0.00 | 0.02 | 0.00 | 89 | 1011.4 |
| 20260508123542 | 36 | 297 | 0.0 | 0.0 | 0.00 | 0.02 | 0.00 | 88 | 1011.4 |
| 20260508123042 | 36 | 297 | 0.0 | 0.0 | 0.00 | 0.02 | 0.00 | 88 | 1011.1 |
| 20260508122541 | 36 | 297 | 0.0 | 0.0 | 0.00 | 0.02 | 0.00 | 87 | 1010.7 |
| 20260508122043 | 36 | 297 | 0.0 | 0.0 | 0.00 | 0.02 | 0.00 | 87 | 1010.6 |
| 20260508121540 | 37 | 297 | 0.0 | 0.0 | 0.00 | 0.02 | 0.00 | 87 | 1010.6 |
| 20260508121038 | 37 | 297 | 0.0 | 0.0 | 0.00 | 0.02 | 0.00 | 87 | 1010.6 |
| 20260508120537 | 37 | 297 | 0.0 | 0.0 | 0.00 | 0.02 | 0.00 | 87 | 1010.4 |
| 20260508120052 | 37 | 297 | 0.0 | 0.0 | 0.00 | 0.02 | 0.00 | 87 | 1010.3 |
| 20260508115537 | 37 | 297 | 0.0 | 0.0 | 0.00 | 0.02 | 0.00 | 87 | 1010.2 |
| 20260508115037 | 38 | 297 | 0.0 | 0.0 | 0.00 | 0.02 | 0.00 | 88 | 1010.0 |
| 20260508114551 | 38 | 297 | 0.0 | 0.0 | 0.00 | 0.02 | 0.00 | 89 | 1010.0 |
| 20260508114037 | 38 | 297 | 0.0 | 0.0 | 0.00 | 0.02 | 0.00 | 88 | 1009.9 |
| 20260508113537 | 38 | 297 | 0.0 | 0.0 | 0.00 | 0.02 | 0.00 | 88 | 1009.9 |
| 20260508113038 | 38 | 297 | 0.0 | 0.0 | 0.00 | 0.02 | 0.00 | 88 | 1009.9 |
| 20260508112536 | 38 | 297 | 0.0 | 0.0 | 0.00 | 0.02 | 0.00 | 88 | 1009.8 |
| 20260508112037 | 38 | 297 | 0.0 | 0.0 | 0.00 | 0.02 | 0.00 | 89 | 1010.0 |
| 20260508111538 | 38 | 297 | 0.0 | 0.0 | 0.00 | 0.02 | 0.00 | 89 | 1009.9 |
| 20260508111036 | 38 | 297 | 0.0 | 0.0 | 0.00 | 0.02 | 0.00 | 89 | 1009.9 |
| 20260508110536 | 38 | 297 | 0.0 | 0.0 | 0.00 | 0.02 | 0.00 | 89 | 1010.1 |
| 20260508110036 | 38 | 297 | 0.0 | 4.0 | 0.00 | 0.02 | 0.00 | 89 | 1010.0 |
| 20260508105535 | 37 | 297 | 0.0 | 4.0 | 0.00 | 0.02 | 0.00 | 88 | 1010.0 |
| 20260508105034 | 37 | 297 | 0.0 | 3.0 | 0.00 | 0.02 | 0.00 | 87 | 1009.7 |
| 20260508104538 | 37 | 56 | 0.0 | 0.0 | 0.00 | 0.02 | 0.00 | 85 | 1009.3 |
| 20260508104033 | 37 | 56 | 0.0 | 0.0 | 0.00 | 0.02 | 0.00 | 85 | 1009.0 |
| 20260508103532 | 37 | 56 | 0.0 | 0.0 | 0.00 | 0.02 | 0.00 | 83 | 1008.9 |
| 20260508103044 | 37 | 56 | 0.0 | 0.0 | 0.00 | 0.02 | 0.00 | 83 | 1009.1 |
| 20260508102533 | 38 | 56 | 0.0 | 0.0 | 0.00 | 0.02 | 0.00 | 83 | 1009.0 |
| 20260508102031 | 38 | 56 | 0.0 | 0.0 | 0.00 | 0.02 | 0.00 | 82 | 1009.0 |
| 20260508101530 | 38 | 56 | 0.0 | 0.0 | 0.00 | 0.02 | 0.00 | 82 | 1009.1 |
| 20260508101031 | 39 | 56 | 0.0 | 0.0 | 0.00 | 0.02 | 0.00 | 83 | 1009.1 |
| 20260508100526 | 39 | 56 | 0.0 | 0.0 | 0.00 | 0.02 | 0.00 | 85 | 1009.2 |
| 20260508100026 | 39 | 56 | 0.0 | 0.0 | 0.00 | 0.02 | 0.00 | 85 | 1009.2 |
| 20260508095526 | 39 | 56 | 0.0 | 0.0 | 0.00 | 0.02 | 0.00 | 85 | 1009.1 |
| 20260508095025 | 39 | 56 | 0.0 | 0.0 | 0.00 | 0.02 | 0.00 | 85 | 1008.9 |
| 20260508094525 | 39 | 56 | 0.0 | 0.0 | 0.00 | 0.02 | 0.00 | 85 | 1009.1 |
| 20260508094023 | 39 | 56 | 0.0 | 0.0 | 0.00 | 0.02 | 0.00 | 85 | 1009.1 |
| 20260508093522 | 40 | 56 | 0.0 | 0.0 | 0.00 | 0.02 | 0.00 | 83 | 1009.3 |
| 20260508093033 | 40 | 56 | 0.0 | 0.0 | 0.00 | 0.02 | 0.00 | 83 | 1009.5 |
| 20260508092619 | 40 | 56 | 0.0 | 0.0 | 0.00 | 0.02 | 0.00 | 82 | 1009.5 |
| 20260508092019 | 40 | 56 | 0.0 | 0.0 | 0.00 | 0.02 | 0.00 | 83 | 1009.5 |
| 20260508091528 | 41 | 56 | 0.0 | 0.0 | 0.00 | 0.02 | 0.00 | 83 | 1009.6 |
| 20260508091017 | 41 | 56 | 0.0 | 0.0 | 0.00 | 0.02 | 0.00 | 83 | 1009.6 |
| 20260508090516 | 41 | 56 | 0.0 | 0.0 | 0.00 | 0.02 | 0.00 | 82 | 1009.6 |
| 20260508090016 | 41 | 56 | 0.0 | 0.0 | 0.00 | 0.02 | 0.00 | 81 | 1009.7 |
| 20260508085517 | 41 | 56 | 0.0 | 0.0 | 0.00 | 0.02 | 0.00 | 81 | 1009.7 |
| 20260508085113 | 41 | 56 | 0.0 | 0.0 | 0.00 | 0.02 | 0.00 | 82 | 1009.7 |
| 20260508084512 | 42 | 56 | 0.0 | 0.0 | 0.00 | 0.02 | 0.00 | 81 | 1009.8 |
| 20260508084011 | 42 | 56 | 0.0 | 0.0 | 0.00 | 0.02 | 0.00 | 80 | 1009.8 |
| 20260508083510 | 42 | 56 | 0.0 | 0.0 | 0.00 | 0.02 | 0.00 | 79 | 1009.9 |
| 20260508083009 | 42 | 56 | 0.0 | 0.0 | 0.00 | 0.02 | 0.00 | 79 | 1010.0 |
| 20260508082512 | 43 | 56 | 0.0 | 0.0 | 0.00 | 0.02 | 0.00 | 78 | 1010.0 |
| 20260508082011 | 43 | 56 | 0.0 | 0.0 | 0.00 | 0.02 | 0.00 | 78 | 1010.0 |
| 20260508081510 | 43 | 56 | 0.0 | 0.0 | 0.00 | 0.02 | 0.00 | 78 | 1010.0 |
| 20260508081004 | 44 | 56 | 0.0 | 0.0 | 0.00 | 0.02 | 0.00 | 76 | 1010.1 |
| 20260508080504 | 44 | 56 | 0.0 | 0.0 | 0.00 | 0.02 | 0.00 | 75 | 1010.3 |
| 20260508080003 | 45 | 56 | 0.0 | 0.0 | 0.00 | 0.02 | 0.00 | 75 | 1010.1 |
| 20260508075500 | 45 | 56 | 0.0 | 0.0 | 0.00 | 0.02 | 0.00 | 76 | 1010.1 |
| 20260508075100 | 45 | 56 | 0.0 | 0.0 | 0.00 | 0.02 | 0.00 | 75 | 1010.1 |
| 20260508074600 | 45 | 56 | 0.0 | 0.0 | 0.00 | 0.02 | 0.00 | 75 | 1010.3 |
| 20260508074059 | 46 | 56 | 0.0 | 0.0 | 0.00 | 0.02 | 0.00 | 75 | 1010.4 |
| 20260508073558 | 46 | 55 | 0.0 | 0.0 | 0.00 | 0.02 | 0.00 | 74 | 1010.4 |
| 20260508073057 | 46 | 55 | 0.0 | 0.0 | 0.00 | 0.02 | 0.00 | 74 | 1010.7 |
| 20260508072555 | 46 | 55 | 0.0 | 0.0 | 0.00 | 0.02 | 0.00 | 73 | 1010.5 |
| 20260508072054 | 47 | 55 | 0.0 | 0.0 | 0.00 | 0.02 | 0.00 | 72 | 1010.5 |
| 20260508071555 | 47 | 55 | 0.0 | 0.0 | 0.00 | 0.02 | 0.00 | 72 | 1010.4 |
| 20260508071053 | 47 | 55 | 0.0 | 0.0 | 0.00 | 0.02 | 0.00 | 72 | 1010.4 |
| 20260508070552 | 47 | 55 | 0.0 | 2.0 | 0.00 | 0.02 | 0.00 | 73 | 1010.5 |
| 20260508070053 | 47 | 55 | 0.0 | 5.0 | 0.00 | 0.02 | 0.00 | 72 | 1010.4 |
| 20260508065554 | 47 | 55 | 1.0 | 5.0 | 0.00 | 0.02 | 0.00 | 72 | 1010.4 |
| 20260508065050 | 48 | 55 | 0.0 | 0.0 | 0.00 | 0.02 | 0.00 | 71 | 1010.6 |
| 20260508064549 | 48 | 55 | 0.0 | 0.0 | 0.00 | 0.02 | 0.00 | 70 | 1010.7 |
| 20260508064048 | 48 | 55 | 0.0 | 0.0 | 0.00 | 0.02 | 0.00 | 70 | 1010.9 |
| 20260508063547 | 48 | 55 | 0.0 | 1.0 | 0.00 | 0.02 | 0.00 | 70 | 1010.9 |
| 20260508063059 | 49 | 55 | 0.0 | 3.0 | 0.00 | 0.02 | 0.00 | 69 | 1011.4 |
| 20260508062549 | 49 | 55 | 0.0 | 3.0 | 0.00 | 0.02 | 0.00 | 69 | 1011.8 |
| 20260508062044 | 49 | 129 | 0.0 | 0.0 | 0.00 | 0.02 | 0.00 | 68 | 1011.0 |
| 20260508061546 | 49 | 129 | 0.0 | 0.0 | 0.00 | 0.02 | 0.00 | 67 | 1010.5 |
| 20260508061043 | 49 | 129 | 0.0 | 0.0 | 0.00 | 0.02 | 0.00 | 66 | 1010.4 |
| 20260508060541 | 49 | 129 | 0.0 | 0.0 | 0.00 | 0.02 | 0.00 | 67 | 1010.5 |
| 20260508060041 | 50 | 129 | 0.0 | 0.0 | 0.00 | 0.02 | 0.00 | 67 | 1010.4 |
| 20260508055540 | 50 | 129 | 0.0 | 0.0 | 0.00 | 0.02 | 0.02 | 66 | 1010.4 |
| 20260508055040 | 50 | 129 | 0.0 | 0.0 | 0.00 | 0.02 | 0.02 | 66 | 1010.4 |
| 20260508054540 | 50 | 129 | 0.0 | 0.0 | 0.00 | 0.02 | 0.02 | 66 | 1010.4 |
| 20260508054040 | 50 | 129 | 0.0 | 0.0 | 0.00 | 0.02 | 0.02 | 66 | 1010.4 |
| 20260508053540 | 50 | 129 | 0.0 | 0.0 | 0.00 | 0.02 | 0.02 | 65 | 1010.3 |
| 20260508053042 | 50 | 129 | 0.0 | 0.0 | 0.00 | 0.02 | 0.02 | 65 | 1010.5 |
| 20260508052539 | 51 | 129 | 0.0 | 11.0 | 0.00 | 0.02 | 0.02 | 64 | 1010.5 |
| 20260508052040 | 51 | 129 | 1.0 | 11.0 | 0.00 | 0.02 | 0.02 | 64 | 1010.6 |
| 20260508051542 | 51 | 129 | 2.0 | 6.0 | 0.00 | 0.02 | 0.02 | 62 | 1010.9 |
| 20260508051042 | 52 | 51 | 0.0 | 1.0 | 0.00 | 0.02 | 0.02 | 61 | 1011.1 |
| 20260508050538 | 52 | 55 | 0.0 | 1.0 | 0.00 | 0.02 | 0.02 | 60 | 1011.1 |
| 20260508050041 | 52 | 55 | 0.0 | 0.0 | 0.00 | 0.02 | 0.02 | 58 | 1010.8 |
| 20260508045538 | 52 | 55 | 0.0 | 0.0 | 0.00 | 0.02 | 0.02 | 56 | 1010.7 |
| 20260508045038 | 52 | 55 | 0.0 | 0.0 | 0.00 | 0.02 | 0.02 | 56 | 1010.5 |
| 20260508044538 | 53 | 55 | 0.0 | 0.0 | 0.00 | 0.02 | 0.02 | 55 | 1010.4 |
| 20260508044040 | 53 | 55 | 0.0 | 0.0 | 0.00 | 0.02 | 0.02 | 54 | 1010.3 |
| 20260508043537 | 53 | 55 | 0.0 | 0.0 | 0.00 | 0.02 | 0.02 | 53 | 1010.3 |
| 20260508043053 | 53 | 54 | 0.0 | 1.0 | 0.00 | 0.02 | 0.02 | 52 | 1010.4 |
| 20260508042537 | 54 | 54 | 0.0 | 1.0 | 0.00 | 0.02 | 0.02 | 52 | 1010.5 |
| 20260508042036 | 54 | 54 | 0.0 | 0.0 | 0.00 | 0.02 | 0.02 | 51 | 1010.5 |
| 20260508041546 | 54 | 54 | 0.0 | 0.0 | 0.00 | 0.02 | 0.02 | 50 | 1010.5 |
| 20260508041039 | 54 | 54 | 0.0 | 0.0 | 0.00 | 0.02 | 0.02 | 49 | 1010.6 |
| 20260508040537 | 54 | 54 | 0.0 | 0.0 | 0.00 | 0.02 | 0.02 | 48 | 1010.7 |
| 20260508040039 | 54 | 54 | 0.0 | 0.0 | 0.00 | 0.02 | 0.02 | 49 | 1010.6 |
| 20260508035537 | 55 | 54 | 0.0 | 0.0 | 0.00 | 0.02 | 0.02 | 47 | 1010.7 |
| 20260508035037 | 55 | 54 | 0.0 | 0.0 | 0.00 | 0.02 | 0.02 | 49 | 1010.7 |
| 20260508034536 | 55 | 54 | 0.0 | 0.0 | 0.00 | 0.02 | 0.02 | 50 | 1010.7 |
| 20260508034037 | 55 | 54 | 0.0 | 0.0 | 0.00 | 0.02 | 0.02 | 47 | 1010.8 |
| 20260508033536 | 55 | 54 | 0.0 | 0.0 | 0.00 | 0.02 | 0.02 | 46 | 1010.7 |
| 20260508033035 | 55 | 54 | 0.0 | 3.0 | 0.00 | 0.02 | 0.02 | 47 | 1010.8 |
| 20260508032536 | 56 | 54 | 0.0 | 4.0 | 0.00 | 0.02 | 0.02 | 46 | 1010.8 |
| 20260508032037 | 56 | 54 | 0.0 | 4.0 | 0.00 | 0.02 | 0.02 | 46 | 1010.8 |
| 20260508031535 | 56 | 39 | 0.0 | 0.0 | 0.00 | 0.02 | 0.02 | 46 | 1011.0 |
| 20260508031034 | 56 | 39 | 0.0 | 0.0 | 0.00 | 0.02 | 0.02 | 46 | 1011.3 |
| 20260508030534 | 56 | 39 | 0.0 | 0.0 | 0.00 | 0.02 | 0.02 | 45 | 1011.3 |
| 20260508030134 | 56 | 39 | 0.0 | 0.0 | 0.00 | 0.02 | 0.02 | 45 | 1011.2 |
| 20260508025534 | 56 | 39 | 0.0 | 0.0 | 0.00 | 0.02 | 0.02 | 44 | 1010.9 |
| 20260508025034 | 57 | 39 | 0.0 | 1.0 | 0.00 | 0.02 | 0.02 | 44 | 1010.8 |
| 20260508024534 | 57 | 39 | 0.0 | 1.0 | 0.00 | 0.02 | 0.02 | 43 | 1010.6 |
| 20260508024034 | 57 | 39 | 0.0 | 2.0 | 0.00 | 0.02 | 0.02 | 43 | 1010.6 |
| 20260508023534 | 57 | 21 | 0.0 | 2.0 | 0.00 | 0.02 | 0.02 | 42 | 1010.5 |
| 20260508023035 | 58 | 51 | 0.0 | 5.0 | 0.00 | 0.02 | 0.02 | 42 | 1010.4 |
| 20260508022532 | 58 | 279 | 0.0 | 8.0 | 0.00 | 0.02 | 0.02 | 43 | 1010.5 |
| 20260508022033 | 58 | 260 | 1.0 | 11.0 | 0.00 | 0.02 | 0.02 | 40 | 1010.7 |
| 20260508021536 | 58 | 272 | 1.0 | 11.0 | 0.00 | 0.02 | 0.02 | 39 | 1010.7 |
| 20260508021032 | 58 | 289 | 0.0 | 5.0 | 0.00 | 0.02 | 0.02 | 37 | 1010.4 |
| 20260508020532 | 58 | 254 | 0.0 | 0.0 | 0.00 | 0.02 | 0.02 | 43 | 1010.2 |
| 20260508020043 | 58 | 254 | 0.0 | 0.0 | 0.00 | 0.02 | 0.02 | 47 | 1010.0 |
| 20260508015531 | 58 | 254 | 0.0 | 0.0 | 0.00 | 0.02 | 0.02 | 45 | 1010.0 |
| 20260508015031 | 59 | 254 | 0.0 | 0.0 | 0.00 | 0.02 | 0.02 | 47 | 1009.9 |
| 20260508014632 | 59 | 254 | 0.0 | 0.0 | 0.00 | 0.02 | 0.02 | 45 | 1009.8 |
| 20260508014033 | 59 | 254 | 0.0 | 0.0 | 0.00 | 0.02 | 0.02 | 47 | 1009.7 |
| 20260508013532 | 60 | 254 | 0.0 | 0.0 | 0.00 | 0.02 | 0.02 | 45 | 1009.6 |
| 20260508013030 | 60 | 254 | 0.0 | 0.0 | 0.00 | 0.02 | 0.02 | 45 | 1009.6 |
| 20260508012530 | 60 | 254 | 0.0 | 0.0 | 0.00 | 0.02 | 0.02 | 43 | 1009.6 |
| 20260508012031 | 60 | 254 | 0.0 | 0.0 | 0.00 | 0.02 | 0.02 | 41 | 1009.6 |
| 20260508011531 | 60 | 254 | 0.0 | 0.0 | 0.00 | 0.02 | 0.02 | 42 | 1009.6 |
| 20260508011030 | 61 | 254 | 0.0 | 0.0 | 0.00 | 0.02 | 0.02 | 41 | 1009.6 |
| 20260508010530 | 61 | 254 | 0.0 | 0.0 | 0.00 | 0.02 | 0.02 | 35 | 1009.6 |
| 20260508010033 | 61 | 254 | 0.0 | 0.0 | 0.00 | 0.02 | 0.02 | 34 | 1009.6 |
| 20260508005529 | 61 | 254 | 0.0 | 0.0 | 0.00 | 0.02 | 0.02 | 36 | 1009.7 |
| 20260508005028 | 61 | 254 | 0.0 | 0.0 | 0.00 | 0.02 | 0.02 | 36 | 1009.7 |
| 20260508004528 | 61 | 254 | 0.0 | 0.0 | 0.00 | 0.02 | 0.02 | 36 | 1009.9 |
| 20260508004031 | 61 | 254 | 0.0 | 0.0 | 0.00 | 0.02 | 0.02 | 33 | 1010.0 |
| 20260508003530 | 61 | 254 | 0.0 | 0.0 | 0.00 | 0.02 | 0.02 | 33 | 1010.0 |
| 20260508003028 | 61 | 254 | 0.0 | 0.0 | 0.00 | 0.02 | 0.02 | 33 | 1009.9 |
| 20260508002528 | 61 | 254 | 0.0 | 0.0 | 0.00 | 0.02 | 0.02 | 32 | 1009.9 |
| 20260508002027 | 61 | 254 | 0.0 | 0.0 | 0.00 | 0.02 | 0.02 | 32 | 1010.0 |
| 20260508001546 | 61 | 254 | 0.0 | 0.0 | 0.00 | 0.02 | 0.02 | 31 | 1010.0 |
| 20260508001025 | 61 | 254 | 0.0 | 0.0 | 0.00 | 0.02 | 0.02 | 32 | 1010.1 |
| 20260508000524 | 61 | 254 | 0.0 | 0.0 | 0.00 | 0.02 | 0.02 | 32 | 1010.2 |
| 20260508000023 | 61 | 254 | 0.0 | 0.0 | 0.00 | 0.02 | 0.02 | 32 | 1010.4 |
| 20260507235523 | 61 | 254 | 0.0 | 0.0 | 0.00 | 0.02 | 0.02 | 36 | 1010.4 |
| 20260507235123 | 61 | 254 | 0.0 | 0.0 | 0.00 | 0.02 | 0.02 | 33 | 1010.4 |
| 20260507234525 | 61 | 254 | 0.0 | 0.0 | 0.00 | 0.02 | 0.02 | 31 | 1010.3 |
| 20260507234053 | 61 | 254 | 0.0 | 0.0 | 0.00 | 0.02 | 0.02 | 31 | 1010.5 |
| 20260507233522 | 62 | 254 | 0.0 | 0.0 | 0.00 | 0.02 | 0.02 | 31 | 1010.4 |
| 20260507233022 | 62 | 254 | 0.0 | 0.0 | 0.00 | 0.02 | 0.02 | 31 | 1010.6 |
| 20260507232521 | 62 | 254 | 0.0 | 0.0 | 0.00 | 0.02 | 0.02 | 30 | 1010.7 |
| 20260507232019 | 62 | 254 | 0.0 | 0.0 | 0.00 | 0.02 | 0.02 | 30 | 1010.8 |
| 20260507231524 | 63 | 254 | 0.0 | 0.0 | 0.00 | 0.02 | 0.02 | 29 | 1010.8 |
| 20260507231018 | 63 | 254 | 0.0 | 0.0 | 0.00 | 0.02 | 0.02 | 29 | 1010.9 |
| 20260507230517 | 63 | 254 | 0.0 | 0.0 | 0.00 | 0.02 | 0.02 | 30 | 1010.9 |
| 20260507230017 | 64 | 254 | 0.0 | 3.0 | 0.00 | 0.02 | 0.02 | 27 | 1011.0 |
| 20260507225520 | 65 | 254 | 0.0 | 3.0 | 0.00 | 0.05 | 0.02 | 28 | 1011.0 |
| 20260507225018 | 65 | 254 | 0.0 | 3.0 | 0.00 | 0.05 | 0.02 | 29 | 1011.1 |
| 20260507224516 | 65 | 254 | 0.0 | 4.0 | 0.00 | 0.05 | 0.02 | 28 | 1011.1 |
| 20260507224015 | 66 | 255 | 0.0 | 9.0 | 0.00 | 0.05 | 0.02 | 27 | 1011.2 |
| 20260507223517 | 66 | 260 | 1.0 | 14.0 | 0.00 | 0.05 | 0.02 | 28 | 1011.3 |
| 20260507223015 | 67 | 254 | 4.0 | 13.0 | 0.00 | 0.05 | 0.02 | 28 | 1011.3 |
| 20260507222514 | 67 | 249 | 1.0 | 12.0 | 0.00 | 0.05 | 0.02 | 30 | 1011.4 |
| 20260507222012 | 67 | 254 | 0.0 | 12.0 | 0.00 | 0.05 | 0.02 | 27 | 1011.7 |
| 20260507221511 | 67 | 252 | 1.0 | 19.0 | 0.00 | 0.05 | 0.02 | 29 | 1011.7 |
| 20260507221010 | 68 | 262 | 4.0 | 19.0 | 0.00 | 0.05 | 0.02 | 29 | 1011.9 |
| 20260507220508 | 68 | 258 | 2.0 | 10.0 | 0.00 | 0.05 | 0.02 | 27 | 1012.0 |
| 20260507220019 | 68 | 258 | 0.0 | 9.0 | 0.00 | 0.05 | 0.02 | 28 | 1012.1 |
| 20260507215508 | 68 | 255 | 1.0 | 9.0 | 0.00 | 0.10 | 0.02 | 26 | 1012.2 |
| 20260507215009 | 69 | 257 | 0.0 | 8.0 | 0.00 | 0.10 | 0.02 | 25 | 1012.4 |
| 20260507214506 | 69 | 266 | 1.0 | 11.0 | 0.00 | 0.10 | 0.02 | 26 | 1012.5 |
| 20260507214006 | 69 | 243 | 1.0 | 13.0 | 0.00 | 0.10 | 0.02 | 26 | 1012.5 |
| 20260507213506 | 68 | 256 | 2.0 | 15.0 | 0.00 | 0.10 | 0.02 | 29 | 1012.6 |
| 20260507213007 | 67 | 248 | 1.0 | 15.0 | 0.00 | 0.10 | 0.02 | 28 | 1012.6 |
| 20260507212505 | 67 | 270 | 6.0 | 14.0 | 0.00 | 0.10 | 0.02 | 27 | 1012.7 |
| 20260507212004 | 67 | 264 | 3.0 | 14.0 | 0.00 | 0.10 | 0.02 | 27 | 1012.7 |
| 20260507211504 | 67 | 244 | 0.0 | 3.0 | 0.00 | 0.10 | 0.02 | 27 | 1012.8 |
| 20260507211003 | 67 | 231 | 0.0 | 11.0 | 0.00 | 0.10 | 0.02 | 28 | 1012.9 |
| 20260507210502 | 69 | 255 | 4.0 | 13.0 | 0.00 | 0.10 | 0.02 | 25 | 1013.0 |
| 20260507210001 | 70 | 257 | 4.0 | 15.0 | 0.00 | 0.10 | 0.02 | 25 | 1013.1 |
| 20260507205601 | 70 | 261 | 5.0 | 15.0 | 0.00 | 0.23 | 0.02 | 27 | 1013.2 |
| 20260507205101 | 70 | 254 | 2.0 | 17.0 | 0.00 | 0.23 | 0.02 | 27 | 1013.2 |
| 20260507204600 | 70 | 268 | 4.0 | 17.0 | 0.00 | 0.23 | 0.02 | 28 | 1013.4 |
| 20260507204058 | 70 | 239 | 3.0 | 15.0 | 0.00 | 0.23 | 0.02 | 28 | 1013.4 |
| 20260507203557 | 70 | 260 | 0.0 | 2.0 | 0.00 | 0.23 | 0.02 | 29 | 1013.6 |
| 20260507203057 | 69 | 264 | 0.0 | 16.0 | 0.00 | 0.23 | 0.02 | 27 | 1013.6 |
| 20260507202557 | 69 | 264 | 2.0 | 16.0 | 0.00 | 0.23 | 0.02 | 26 | 1013.8 |
| 20260507202054 | 69 | 276 | 2.0 | 15.0 | 0.00 | 0.23 | 0.02 | 29 | 1013.9 |
| 20260507201558 | 68 | 252 | 0.0 | 16.0 | 0.00 | 0.23 | 0.02 | 27 | 1014.1 |
| 20260507201051 | 68 | 277 | 4.0 | 16.0 | 0.00 | 0.23 | 0.02 | 31 | 1014.2 |
| 20260507200551 | 67 | 258 | 2.0 | 22.0 | 0.00 | 0.23 | 0.02 | 28 | 1014.3 |
| 20260507200049 | 67 | 249 | 4.0 | 22.0 | 0.00 | 0.23 | 0.02 | 27 | 1014.5 |
| 20260507195549 | 67 | 263 | 0.0 | 13.0 | 0.00 | 0.36 | 0.02 | 28 | 1014.5 |
| 20260507195048 | 67 | 264 | 4.0 | 13.0 | 0.00 | 0.36 | 0.02 | 28 | 1014.7 |
| 20260507194548 | 68 | 250 | 2.0 | 19.0 | 0.00 | 0.36 | 0.02 | 28 | 1014.7 |
| 20260507194047 | 68 | 264 | 2.0 | 19.0 | 0.00 | 0.36 | 0.02 | 27 | 1014.8 |
| 20260507193546 | 68 | 258 | 2.0 | 13.0 | 0.00 | 0.36 | 0.02 | 31 | 1014.9 |
| 20260507193050 | 67 | 260 | 3.0 | 13.0 | 0.00 | 0.36 | 0.02 | 30 | 1015.0 |
| 20260507192543 | 67 | 252 | 4.0 | 13.0 | 0.00 | 0.36 | 0.02 | 30 | 1015.0 |
| 20260507192044 | 67 | 262 | 2.0 | 15.0 | 0.00 | 0.36 | 0.02 | 28 | 1015.2 |
| 20260507191550 | 67 | 243 | 4.0 | 15.0 | 0.00 | 0.36 | 0.02 | 28 | 1015.3 |
| 20260507191041 | 67 | 221 | 1.0 | 10.0 | 0.00 | 0.36 | 0.02 | 31 | 1015.3 |
| 20260507190539 | 66 | 252 | 1.0 | 16.0 | 0.00 | 0.36 | 0.02 | 33 | 1015.6 |
| 20260507190037 | 66 | 259 | 3.0 | 16.0 | 0.00 | 0.36 | 0.02 | 32 | 1015.6 |
| 20260507185536 | 66 | 242 | 5.0 | 16.0 | 0.00 | 0.41 | 0.02 | 34 | 1015.8 |
| 20260507185038 | 65 | 244 | 3.0 | 14.0 | 0.00 | 0.41 | 0.02 | 34 | 1015.9 |
| 20260507184533 | 64 | 250 | 1.0 | 11.0 | 0.00 | 0.41 | 0.02 | 34 | 1015.9 |
| 20260507184031 | 64 | 242 | 1.0 | 11.0 | 0.00 | 0.41 | 0.02 | 34 | 1016.1 |
| 20260507183530 | 63 | 247 | 2.0 | 10.0 | 0.00 | 0.41 | 0.02 | 36 | 1016.3 |
| 20260507183030 | 63 | 254 | 1.0 | 10.0 | 0.00 | 0.41 | 0.02 | 35 | 1016.4 |
| 20260507182528 | 63 | 249 | 0.0 | 11.0 | 0.00 | 0.41 | 0.02 | 40 | 1016.4 |
| 20260507182032 | 63 | 239 | 1.0 | 11.0 | 0.00 | 0.41 | 0.02 | 37 | 1016.5 |
| 20260507181527 | 63 | 244 | 3.0 | 13.0 | 0.00 | 0.41 | 0.02 | 34 | 1016.5 |
| 20260507181026 | 62 | 254 | 4.0 | 13.0 | 0.00 | 0.41 | 0.02 | 36 | 1016.6 |
| 20260507180526 | 61 | 235 | 3.0 | 12.0 | 0.00 | 0.41 | 0.02 | 37 | 1016.7 |
| 20260507180021 | 61 | 255 | 3.0 | 12.0 | 0.00 | 0.41 | 0.02 | 42 | 1016.7 |